Regional Weather Roundup
Issued by NWS

Home | Current Version | Previous Version | Text Only | Print | Product List | Glossary Off
Versions: 1 2 3 4 5 6 7 8 9 10 11 12 13 14 15 16 17 18 19 20 21 22 23 24 25 26 27 28 29 30 31 32 33 34 35 36 37 38 39 40 41 42 43 44 45 46 47 48 49 50

000
ASUS45 KSLC 012210
RWRUT

UTAH REGIONAL WEATHER ROUNDUP
NATIONAL WEATHER SERVICE SALT LAKE CITY UT
400 PM MDT WED JUL 01 2015

UTZ001>011-023>025-012300-

NORTHERN UTAH

CITY           SKY/WX    TMP DP  RH WIND       PRES   REMARKS
BRIGHAM CITY   SUNNY     95  39  14 W6        30.02F HX  90
HILL AFB       MOSUNNY   94  47  20 NW10      30.08F HX  90
LOGAN          SUNNY     95  45  17 NW8       30.03F HX  91
OGDEN          SUNNY     95  45  17 MISG      30.04F HX  91
PROVO AIRPORT  SUNNY     95  55  26 NW15      30.04F HX  93
SALT LAKE CITY PTSUNNY   95  49  20 NW12      30.02F HX  92
VERNAL         PTSUNNY   81  52  36 NW14      30.12F
WENDOVER       MOSUNNY   99  46  16 SE12G17   30.04F HX  95
HEBER CITY     SUNNY     93  39  15 N14       30.13S
WEST JORDAN    SUNNY     93  46  20 NW12G17   30.07F

$$

UTZ012>022-026-027-012300-

SOUTHERN/CENTRAL UTAH

CITY           SKY/WX    TMP DP  RH WIND       PRES   REMARKS
BLANDING       MOSUNNY   94  44  17 E3        30.14F HX  90
BRYCE CANYON   PTSUNNY   85  47  26 NE9       30.26F
CEDAR CITY     PTSUNNY   90  44  20 N8        30.10S
DELTA          PTSUNNY   96  42  15 CALM      30.04F HX  91
HANKSVILLE     MOSUNNY  100  41  13 W9        29.98F HX  96
MILFORD        MOSUNNY  100  46  16 N14G22    30.04F HX  96
MOAB/CYNLANDS  SUNNY     98  43  15 VRB5      29.95F HX  94
PRICE          PTSUNNY   96  47  18 NE22      30.12S HX  92
ST GEORGE      CLEAR    106  54  17 SW20G25   29.86F HX 104
KANAB          SUNNY    100  45  15 SW3       30.04F HX  96

$$

REGIONAL REPORTS     COLORADO/ARIZONA

CITY           SKY/WX    TMP DP  RH WIND       PRES   REMARKS
CRAIG, CO      MOSUNNY   89  47  23 SW8       30.18F
GRAND JUNCTION PTSUNNY   96  47  18 W9        30.01F HX  92
RIFLE          MOSUNNY   92  43  18 W6        30.08F
MONTROSE       PTSUNNY   93  43  17 N9        30.10F
CORTEZ         SUNNY     94  46  19 W7        30.08F HX  90
PAGE, AZ       SUNNY    103  40  11 VRB3      29.93F HX  98
GRAND CANYON   MOSUNNY   87  45  23 NE6       30.19F
KINGMAN        CLOUDY    90  54  29 SW20      30.02F
FLAGSTAFF      PTSUNNY   73  56  54 NW10G16   30.26R THUNDER

$$

REGIONAL REPORTS    NEVADA/IDAHO/WYOMING

CITY           SKY/WX    TMP DP  RH WIND       PRES   REMARKS
LAS VEGAS, NV  MOSUNNY  105  53  17 W13G18    29.80F HX 103
ELY            MOSUNNY   95  38  13 N5        30.16F HX  90
ELKO           PTSUNNY   96  44  16 NE13G22   30.10F HX  92
POCATELLO, ID  SUNNY     95  47  19 W13       30.06F HX  91
BURLEY         SUNNY     92  51  24 W10       30.03F
EVANSTON, WY   MOSUNNY   87  36  16 W13G22    30.26F
ROCK SPRINGS   MOSUNNY   86  45  23 W13G20    30.18F
KEMMERER       SUNNY     86  37  17 NW17      30.26F

$$


USA.gov is the U.S. government's official web portal to all federal, state and local government web resources and services.